Flag for Lithuania Weather past 2 weeks in Kaunas, Lithuania

Now
77 °F

Passing clouds.


Feels Like: 79 °F
Forecast: 65 / 90 °F
Wind: 6 mph from South

Location: Kaunas

Current Time: Jul 29, 2014 at 10:41:16 AM

Latest Report: Jul 29, 2014 at 10:20 AM


Visibility: N/A

Pressure: 29.92 "Hg

Humidity: 57%

Dew point: 61 °F

Location of KaunasLocation

Historic Weather in Kaunas — Graph

°F

Kaunas temperature yesterday

Maximum temperature yesterday: 88 °F (at 2:20 PM)
Minimum temperature yesterday: 64 °F (at 1:20 AM)
Average temperature yesterday: 74 °F

Past Weeks' High & Low Weather Summary

 TemperatureHumidityPressure
High88 °F (Jul 27, 2:20 PM)94% (Jul 16, 4:20 AM)30.18 "Hg (Jul 16, 4:20 AM)
Low50 °F (Jul 24, 5:20 AM)22% (Jul 27, 3:20 PM)29.92 "Hg (Jul 14, 6:20 PM)
Average70 °F62%30.06 "Hg
* Reported Jul 14 9:20 AM — Jul 29 9:20 AM, Kaunas, Weather by CustomWeather, © 2014

Note: Actual official high and low records may vary slightly from our data, if they occured in-between our weather recording intervals... More about our weather records

Advertising

Kaunas weather history for previous 24 hours

 ConditionsComfort  
Time TempWeatherWind HumidityBarometerVisibility
9:20 AM
Jul 29
75 °FPassing clouds.3 mph61%29.92 "HgN/A
8:50 AM75 °FPassing clouds.5 mph61%29.92 "HgN/A
8:20 AM73 °FSunny.2 mph65%29.92 "Hg10 mi
7:50 AM72 °FSunny.1 mph69%29.92 "Hg10 mi
7:20 AM68 °FFog.No wind83%29.92 "HgN/A
6:50 AM66 °FSunny.No wind88%29.92 "Hg10 mi
6:20 AM63 °FClear.1 mph88%29.92 "Hg10 mi
5:50 AM63 °FClear.2 mph88%29.92 "Hg10 mi
5:20 AM63 °FClear.2 mph88%29.92 "Hg10 mi
4:50 AM63 °FClear.2 mph88%29.92 "Hg10 mi
4:20 AM63 °FClear.No wind88%29.92 "Hg10 mi
3:50 AM63 °FPassing clouds.1 mph88%29.92 "HgN/A
3:20 AM63 °FMild.No wind88%29.92 "HgN/A
2:50 AM64 °FMild.No wind88%29.95 "HgN/A
2:20 AM64 °FMild.No wind88%29.95 "HgN/A
1:50 AM64 °FMild.No wind88%29.95 "HgN/A
1:20 AM66 °FMild.1 mph83%29.95 "HgN/A
11:50 PM
Jul 28
66 °FClear.3 mph88%29.95 "Hg10 mi
11:20 PM68 °FClear.3 mph83%29.95 "Hg10 mi
10:50 PM68 °FClear.No wind78%29.95 "Hg10 mi
10:20 PM72 °FSunny.5 mph69%29.95 "Hg10 mi
9:50 PM72 °FSunny.3 mph69%29.95 "Hg10 mi
9:20 PM73 °FSunny.3 mph65%29.95 "Hg10 mi
8:50 PM75 °FSunny.5 mph65%29.95 "Hg10 mi
8:20 PM77 °FSunny.3 mph61%29.95 "Hg10 mi
7:50 PM75 °FSunny.3 mph65%29.95 "Hg10 mi
7:20 PM75 °FSunny.5 mph65%29.95 "Hg10 mi
6:50 PM75 °FPassing clouds.7 mph65%29.95 "HgN/A
6:20 PM75 °FSunny.7 mph69%29.95 "Hg10 mi
5:50 PM75 °FPartly sunny.5 mph74%29.98 "HgN/A
5:20 PM75 °FPartly sunny.6 mph69%29.98 "HgN/A
4:50 PM73 °FThunderstorms. More clouds than sun.12 mph74%29.98 "HgN/A
4:20 PM79 °FThundershowers. Broken clouds.No wind61%29.98 "HgN/A
3:50 PM73 °FThunderstorms. Broken clouds.14 mph61%29.98 "Hg6 mi
3:20 PM86 °FBroken clouds.10 mph35%29.98 "HgN/A
2:50 PM88 °FPassing clouds.12 mph35%29.98 "HgN/A
2:20 PM88 °FPassing clouds.12 mph33%29.98 "HgN/A
1:50 PM86 °FPassing clouds.10 mph38%30.01 "HgN/A
1:20 PM86 °FPassing clouds.12 mph38%30.01 "HgN/A
12:50 PM86 °FPassing clouds.13 mph38%30.01 "HgN/A
12:20 PM86 °FPassing clouds.10 mph38%30.01 "HgN/A
11:50 AM84 °FPassing clouds.9 mph40%30.01 "HgN/A
11:20 AM82 °FPassing clouds.8 mph42%30.01 "HgN/A
10:50 AM81 °FPassing clouds.7 mph48%30.01 "HgN/A
10:20 AM79 °FSunny.2 mph51%30.04 "Hg10 mi
Weather by CustomWeather, © 2014

See weather overviewHow to use our weather pages